This is the latest recevied weather packets stored in our database for station/object ZR6G-15. If no packets are shown the sender has not sent any weather packets the latest 1 day(s).
| Time | Temp. | Humidity | Pressure | Rain* | Wind** | Luminosity | Snow |
|---|---|---|---|---|---|---|---|
| 1778015324 | 10° C | 48% | 1012.1 hPa | - | - | - | - |
| 1778014720 | 10° C | 47% | 1011.5 hPa | - | - | - | - |
| 1778014114 | 10° C | 46% | 1012.2 hPa | - | - | - | - |
| 1778013510 | 10.56° C | 48% | 1012.6 hPa | - | - | - | - |
| 1778012905 | 10.56° C | 49% | 1012.3 hPa | - | - | - | - |
| 1778012301 | 10.56° C | 49% | 1011.3 hPa | - | - | - | - |
| 1778011696 | 10.56° C | 48% | 1011.3 hPa | - | - | - | - |
| 1778011090 | 10.56° C | 49% | 1011.7 hPa | - | - | - | - |
| 1778010486 | 10.56° C | 49% | 1011.2 hPa | - | - | - | - |
| 1778009881 | 10.56° C | 48% | 1010.8 hPa | - | - | - | - |
| 1778009276 | 11.67° C | 50% | 1010.4 hPa | - | - | - | - |
| 1778008672 | 11.67° C | 52% | 1010.7 hPa | - | - | - | - |
| 1778008067 | 11.67° C | 53% | 1010.6 hPa | - | - | - | - |
| 1778007463 | 12.78° C | 53% | 1009.7 hPa | - | - | - | - |
| 1778006858 | 12.78° C | 51% | 1009.3 hPa | - | - | - | - |
| 1778006253 | 12.78° C | 50% | 1009 hPa | - | - | - | - |
| 1778005649 | 12.78° C | 50% | 1008.4 hPa | - | - | - | - |
| 1778005044 | 12.78° C | 50% | 1008.1 hPa | - | - | - | - |
| 1778004440 | 13.89° C | 55% | 1008.2 hPa | - | - | - | - |
| 1778003835 | 13.89° C | 59% | 1007.7 hPa | - | - | - | - |
| 1778003230 | 13.89° C | 58% | 1007.6 hPa | - | - | - | - |
| 1778002626 | 13.89° C | 57% | 1007.6 hPa | - | - | - | - |
| 1778002021 | 13.89° C | 57% | 1006.9 hPa | - | - | - | - |
| 1778001416 | 13.89° C | 57% | 1007.6 hPa | - | - | - | - |
| 1778000812 | 13.89° C | 58% | 1007.5 hPa | - | - | - | - |
* Rain since midnight (hover to see other rain measurements)
** Current wind speed in m/s (hover to see current wind gust speed)